Regional Weather Roundup
Issued by NWS

Home | Current Version | Previous Version | Text Only | Print | Product List | Glossary On
Versions: 1 2 3 4 5 6 7 8 9 10 11 12 13 14 15 16 17 18 19 20 21 22 23 24 25 26 27 28 29 30 31 32 33 34 35 36 37 38 39 40 41 42 43 44 45 46 47 48 49 50
000
ASUS43 KLMK 241610
RWRKY
KENTUCKY REGIONAL WEATHER ROUNDUP
NATIONAL WEATHER SERVICE LOUISVILLE KY
1200 PM EDT SUN MAY 24 2015

NOTE "FAIR" INDICATES FEW OR NO CLOUDS BELOW 12,000 FEET
WITH NO SIGNIFICANT WEATHER AND/OR OBSTRUCTIONS TO VISIBILITY.

KYZ001>023-026-027-061>063-070>075-241700-
WESTERN AND SOUTH CENTRAL KENTUCKY

CITY           SKY/WX    TMP DP  RH WIND       PRES   REMARKS
PADUCAH        MOSUNNY   80  62  54 S9G22     30.12F
HENDERSON      SUNNY     79  57  47 S15G23    30.14F
OWENSBORO      SUNNY     81  59  47 S20       30.18F
HOPKINSVILLE   SUNNY     79  61  54 SE14      30.17F
BOWLING GREEN  MOSUNNY   80  58  46 SE17G23   30.23F
GLASGOW        MOSUNNY   78  55  45 SE10      30.25F
$$

KYZ024-025-028>034-038-045-046-053-241700-
NORTH CENTRAL KENTUCKY

CITY           SKY/WX    TMP DP  RH WIND       PRES   REMARKS
LOUISVILLE/SDF MOSUNNY   81  53  37 S14       30.23F
LOUISVILLE/LOU SUNNY     80  52  37 S14G21    30.24F
FORT KNOX      SUNNY     78  55  44 S17       30.22F
$$

KYZ035>037-039>044-047>052-055>060-089>105-241700-
NORTHEAST KENTUCKY

CITY           SKY/WX    TMP DP  RH WIND       PRES   REMARKS
LEXINGTON      SUNNY     78  52  40 S14       30.29F
COVINGTON      CLOUDY    76  54  46 S12G17    30.27F
FRANKFORT      MOSUNNY   79  52  38 S15G21    30.26F
$$

KYZ054-064>069-076>088-106>120-241700-
SOUTHEAST KENTUCKY

CITY           SKY/WX    TMP DP  RH WIND       PRES   REMARKS
JACKSON        SUNNY     76  53  44 CALM      30.35S
LONDON         SUNNY     77  46  33 SW8       30.34S
SOMERSET       SUNNY     73  54  49 S12       30.33F
MIDDLESBORO    SUNNY     75  54  47 CALM      30.36S
MONTICELLO     SUNNY     78  57  48 S13       30.34F
$$




USA.gov is the U.S. government's official web portal to all federal, state and local government web resources and services.